Location: Novokuznetsk
(53.7500°N, 87.1000°E)
Time: 21:09:21
(UTC+06:00)

ISS - Pass Details

Date: 01 March 2021
Orbit: 418 x 422 km, 51.6° (Epoch: 16 April)

Event Time Altitude Azimuth Distance (km) Brightness Sun altitude
Exits shadow 05:10:01 40° 216° (SW) 637 -3.2 -17.0°
Maximum altitude 05:10:51 52° 168° (SSE) 530 -3.3 -16.9°
Drops below altitude 10° 05:14:08 10° 92° (E) 1,501 0.3 -16.4°
Sets 05:16:16 0° 87° (E) 2,366 1.9 -16.1°
